Regional Weather Roundup
Issued by NWS Albany, NY

Home | Current Version | Previous Version | Text Only | Print | Product List | Glossary On
Versions: 1 2 3 4 5 6 7 8 9 10 11 12 13 14 15 16 17 18 19 20 21 22 23 24 25 26 27 28 29 30 31 32 33 34 35 36 37 38 39 40 41 42 43 44 45 46 47 48 49 50
000
ASUS41 KALY 180910
RWRALY

NEW YORK STATE HOURLY WEATHER ROUNDUP
NATIONAL WEATHER SERVICE ALBANY NY
400 AM EST THU DEC 18 2014

NOTE: "FAIR" INDICATES FEW OR NO CLOUDS BELOW 12,000 FEET WITH NO
SIGNIFICANT WEATHER AND/OR NO OBSTRUCTIONS TO VISIBILITY.

NYZ032-033-038>043-046>054-057>066-NYZ062>081-181000-
EAST


CITY           SKY/WX    TMP DP  RH WIND       PRES   REMARKS
ALBANY         LGT SNOW  35  29  78 W10G20    29.85S WCI  27
GLENS FALLS    CLOUDY    33  31  92 S10       29.79S WCI  25
POUGHKEEPSIE   CLOUDY    39  25  57 W12       29.87S WCI  32
NEWBURGH       CLOUDY    37  28  70 W16G30    29.89S WCI  28
MONTGOMERY     CLOUDY    37  24  59 NW10G22   29.88F WCI  30
WHITE PLAINS   MOCLDY    37  26  64 NW20G29   29.86F WCI  27
ISLIP          CLOUDY    40  26  57 NW20G30   29.85S WCI  30
NEW YORK CITY  CLOUDY    40  25  55 NW22G33   29.90F WCI  30
CENTRAL PARK   CLOUDY    40  24  53 VRB7G20   29.92F
$$

NYZ005>009-017-018-044>046-055-056-181000-
CENTRAL


CITY           SKY/WX    TMP DP  RH WIND       PRES   REMARKS
FULTON         CLOUDY    33  27  78 W20G25    29.94R WCI  21
SYRACUSE       FLURRIES  31  27  85 W21G26    29.95R WCI  18
ROME           LGT SNOW  31  29  92 W16G25    29.92R FOG     WCI  20
ELMIRA         CLOUDY    32  24  72 W14       29.99R WCI  22
BINGHAMTON     CLOUDY    28  23  81 W14       29.91R WCI  17
MONTICELLO     CLOUDY    30  25  80 W15G29    29.88R WCI  19
$$

NYZ026>034-041>043-181000-
NORTH


CITY           SKY/WX    TMP DP  RH WIND       PRES   REMARKS
WATERTOWN      LGT SNOW  34  29  82 W14       29.90S WCI  25
FORT DRUM      NOT AVBL
MASSENA        LGT SNOW  33  31  92 W8        29.83R FOG     WCI  26
SARANAC LAKE   CLOUDY    30  32 100 VRB5      29.74R FOG     WCI  25
PLATTSBURGH    LGT RAIN  33  33 100 CALM      29.77S FOG
$$

NYZ001>004-010>016-019>021-181000-
WEST


CITY           SKY/WX    TMP DP  RH WIND       PRES   REMARKS
NIAGARA FALLS  CLOUDY    30  24  78 W15       30.04R WCI  19
BUFFALO        CLOUDY    30  23  75 W18G26    30.04R WCI  18
DUNKIRK        CLOUDY    31  22  69 W15G26    30.10R WCI  20
JAMESTOWN      CLOUDY    27  21  80 W10G16    30.04S WCI  17
WELLSVILLE     CLOUDY    26  21  81 W20G26    29.97F WCI  12
ROCHESTER      CLOUDY    31  25  78 W20       30.00S WCI  19
PENN YAN       CLOUDY    32  22  66 W18G25    29.98R WCI  20
$$

             KEY
       WCI = WIND CHILL INDEX
       VSB = VISIBILITY
       HX  = HEAT INDEX
$$



USA.gov is the U.S. government's official web portal to all federal, state and local government web resources and services.